Vertical_Velocity
3 5 -6 -1 3 -2 -2 10 1 2 1 7 8 6 -1 -6 1 -4 -5 -2 -3 -3 1 1 1 1 4 -3 -2 -2 -1 -1 -3 -4 -2 -1 1 -1 1 -1 -2 1 0 1 -3 0 -3 1 -3
-3 5 -3 -2 -7 2 7 12 -15 -37 -2 9 6 5 8 -5 -1 -1 -1 -5 -4 -3 2 -0 -1 -0 0 0 -0 1 -1 -0 -1 2 1 -1 -4 1 -2 -1 1 1 -5 -2 -1 -5 -1 -2 1
-10 -5 -9 -5 2 1 -4 -6 -1 12 8 -1 -0 -2 -0 -3 -3 -2 -2 0 -0 -2 0 -0 -1 -1 -1 0 3 1 1 -1 -1 -1 0 -2 1 1 0 2 -1 0 -2 -1 -1 -1 -4 -2 -1
5 -6 -6 1 6 -0 8 5 -13 -4 4 -0 -3 -3 1 -1 0 -2 -2 -3 -4 2 -3 -1 0 1 1 1 -1 -1 -4 -0 -3 -0 2 0 4 -3 -3 1 -2 -2 -1 -1 -0 -1 -0 -3 -2
-2 -7 9 -1 12 2 19 23 -18 -8 1 0 8 -5 -4 3 2 1 -2 -4 -2 -1 0 2 1 1 -1 -1 0 -2 -1 -0 -2 -4 -5 2 4 1 1 4 2 -2 -1 1 2 -2 1 -2 -2
5 10 -13 -4 4 -5 -1 20 5 4 4 1 -2 -3 -6 1 1 -2 1 0 -3 4 1 1 1 -1 1 0 -4 -3 -1 -0 2 2 3 2 -3 -4 -7 -1 -8 -2 -1 3 -1 -0 -2 -0 -2
-3 -4 -2 -4 15 -3 7 28 0 0 1 -6 -4 -5 -5 -6 1 -3 -2 3 1 -2 2 -0 2 1 -0 -3 -1 -1 0 1 -2 -2 -0 -1 1 -3 0 -4 -5 0 -1 -3 -0 1 -2 0 -2
3 -7 9 14 -28 -18 12 0 9 7 -8 -3 -4 -1 -7 -5 -1 4 3 4 2 2 3 -1 1 -3 -4 -2 -2 -3 -3 2 -4 4 0 1 -5 -3 1 -2 -2 -0 -0 -1 0 1 -0 -1 -1
7 -3 0 14 -13 -7 11 -3 6 -0 -9 -3 1 -1 -5 -2 -1 1 -3 -3 -3 -1 -0 -5 -3 -1 0 1 2 -4 4 -1 -1 11 4 4 -2 -4 -1 -3 -1 1 -2 0 0 -1 2 1 -1
2 6 -3 -6 2 -5 10 -7 0 -1 3 5 1 -1 -2 -4 -3 -0 -3 2 0 -0 3 4 2 8 5 1 -1 0 -1 -0 -5 -3 -5 2 4 -1 0 -5 -3 -3 -3 -3 -2 -2 -1 0 2
2 -3 2 6 0 4 -4 2 -1 3 -5 -4 -6 -1 -1 -6 -5 -1 0 2 -2 1 -0 4 2 2 -3 -5 -4 -7 -3 8 6 2 0 -2 -3 -4 -6 -4 -3 -4 -3 -3 -3 -2 -3 -1 -0
6 8 3 -4 2 4 -2 -6 -4 -2 0 -4 -1 -6 -6 -2 -1 -2 -1 -3 -2 2 7 1 1 2 10 -6 -1 1 -2 -2 -4 2 1 -6 -7 -7 -4 -7 -4 -4 -3 -3 -1 -1 -3 -3 -3
-7 1 2 4 2 6 7 -7 -8 -7 -3 -5 -4 -2 1 -1 1 -6 -4 2 -4 -3 -0 -8 -7 -12 -11 -11 4 1 -5 -7 2 -4 -6 -2 -1 -3 -2 -2 -2 -3 -4 -6 -6 -5 -4 -4 -4
-5 6 3 2 4 2 -2 -6 -3 2 -2 -5 -0 -1 -3 -2 -5 -4 -6 -10 -5 1 1 -3 -2 -7 -1 -2 -11 -11 -7 -10 -9 -3 -3 -1 -2 0 4 2 3 1 -3 -2 -2 -3 -4 -5 -5
0 -5 0 -1 3 2 -8 -0 3 -6 -3 -6 -4 -2 0 2 0 -4 -5 -12 -5 -6 -2 12 4 -3 -0 0 -6 2 8 6 6 2 1 0 -0 2 2 5 2 -2 -0 1 -1 -1 -3 -4 -1
-4 0 -3 2 -0 -1 3 0 0 1 2 2 1 6 1 9 7 10 -0 9 7 10 9 -5 -2 -4 0 2 -2 -2 -0 3 1 -3 -1 -2 4 4 4 4 2 2 0 -2 -2 -3 -2 -2 -3
4 -5 -6 -1 1 5 1 1 -9 1 8 12 9 -1 1 -2 2 -0 1 -1 6 3 3 2 2 -1 4 -2 2 2 -5 -2 -1 5 1 0 -4 -8 -4 -3 -0 -3 -3 -3 -2 1 -4 -6 -5
-5 -0 6 -0 -4 4 3 -4 9 15 4 1 2 0 8 6 4 2 3 4 3 5 5 15 3 9 4 9 -1 -3 3 -3 -2 -3 -3 -0 -2 -1 -5 -6 -6 -2 -2 -1 2 1 1 -3 -4
12 2 1 1 3 12 3 -1 2 -1 -2 -5 -2 5 3 3 1 4 3 7 2 2 10 -2 10 9 8 8 3 3 12 5 4 -1 -3 -6 -2 -0 3 3 3 4 3 -1 -2 -2 -3 -1 -4
-0 -4 3 5 -2 5 3 4 2 7 8 11 5 -3 -1 5 5 4 6 6 2 8 4 13 6 1 1 6 6 6 4 1 1 3 6 7 5 1 2 3 -0 -3 -1 -2 -3 -3 -1 -1 -2
6 -2 -1 -2 -1 10 7 6 2 5 8 1 0 3 -0 4 4 2 2 6 3 3 1 -1 0 3 6 6 2 3 2 3 6 4 4 4 5 6 4 3 1 1 1 -1 -3 -3 -1 -6 -6
1 2 5 6 1 -2 3 1 7 8 1 -1 3 2 5 9 8 2 0 2 3 2 3 3 4 4 4 6 6 3 2 1 3 6 5 5 2 4 5 7 5 3 1 -0 0 3 3 2 -3
-0 -0 1 3 0 -0 8 2 9 3 1 2 5 -0 3 0 5 1 3 1 1 -2 -5 -6 0 -3 -2 -2 -1 0 -1 -5 -4 -4 -2 0 -2 1 2 2 2 3 5 3 4 2 2 2 1
-1 2 0 -1 -1 -3 -1 1 12 5 0 -4 -2 -1 2 3 -1 -2 1 3 4 3 2 1 1 -3 -2 -5 -8 -8 -3 -5 -1 -0 -2 -2 -3 -0 -1 -1 -1 -0 -0 -1 0 -1 -1 -1 -0
-4 -5 -3 -5 -4 -6 2 2 2 -1 5 7 3 2 1 -1 -10 -6 0 1 -3 -4 -2 -1 -4 -5 -3 0 -0 -1 -3 -4 -6 -3 1 2 0 0 -0 -0 -0 -0 -1 -2 -2 -0 -1 -1 -3
-4 -5 -4 -3 -2 -4 6 -1 -1 4 10 13 17 15 1 1 -17 -7 -5 -11 -10 -8 -8 -7 -8 -6 -5 -4 -4 -6 -4 -5 -8 -5 -0 1 3 1 -0 0 1 2 -1 -1 -1 1 3 -0 2
1 -1 0 -2 1 -1 1 2 3 7 -6 -17 -30 -17 -18 -6 15 -1 2 1 -1 2 1 -3 -4 -5 -5 -4 -2 -4 -2 1 -0 -1 -2 -1 -2 -2 -0 -2 0 1 1 1 -1 3 1 -0 3
-4 0 -4 -3 -4 -1 -0 1 1 4 9 9 0 -2 -1 2 -6 8 9 7 1 -3 -0 1 1 -1 -1 3 -2 -3 -2 -2 1 4 3 3 2 1 -0 -3 -2 -2 1 -0 -4 -2 2 0 2
-2 -2 -2 -0 -0 -4 -2 -1 -3 0 -1 3 5 6 4 4 2 -1 -10 -5 0 4 1 1 2 3 -3 -3 3 1 3 3 2 -0 -1 -2 -1 -0 -0 -6 -6 -6 -6 -3 -4 -1 -1 1 -1
-1 -3 -5 -5 -0 -0 -1 -5 2 0 -0 -4 -8 -1 1 1 -1 -5 13 3 5 1 1 2 -1 -3 4 4 2 4 1 1 1 1 -5 -4 -3 -2 -5 -4 -3 -4 -5 -1 1 -2 -2 -2 -1
Height
3159 3157 3160 3163 3169 3166 3165 3166 3164 3165 3165 3167 3167 3167 3166 3166 3170 3176 3174 3177 3180 3184 3186 3188 3189 3191 3191 3192 3193 3192 3192 3192 3192 3192 3191 3189 3187 3186 3185 3184 3184 3183 3182 3181 3180 3179 3179 3177 3177
3157 3157 3161 3164 3167 3164 3165 3164 3160 3165 3165 3166 3166 3167 3166 3166 3171 3172 3175 3177 3179 3183 3186 3188 3189 3191 3192 3192 3192 3192 3192 3192 3191 3190 3188 3186 3185 3183 3182 3181 3181 3181 3180 3179 3178 3177 3177 3176 3175
3156 3158 3162 3167 3164 3164 3164 3165 3162 3165 3166 3166 3164 3166 3166 3167 3171 3173 3174 3177 3179 3183 3185 3188 3190 3192 3192 3191 3192 3192 3191 3190 3188 3187 3186 3185 3183 3181 3180 3180 3180 3180 3179 3177 3176 3175 3174 3173 3172
3156 3159 3163 3164 3160 3161 3164 3163 3160 3165 3167 3166 3166 3166 3165 3165 3170 3173 3174 3176 3180 3182 3185 3188 3189 3190 3191 3191 3191 3190 3189 3188 3186 3186 3185 3183 3182 3181 3181 3180 3179 3179 3178 3176 3175 3174 3173 3172 3171
3156 3158 3161 3164 3158 3160 3163 3163 3160 3164 3166 3166 3167 3164 3166 3167 3171 3172 3174 3177 3180 3183 3185 3187 3189 3189 3190 3190 3190 3188 3187 3186 3186 3185 3185 3184 3182 3182 3181 3180 3177 3177 3176 3175 3173 3172 3171 3171 3170
3158 3159 3164 3162 3160 3161 3163 3164 3163 3164 3165 3166 3164 3165 3166 3168 3171 3173 3174 3177 3180 3184 3185 3187 3188 3189 3189 3188 3188 3187 3186 3186 3186 3185 3184 3184 3182 3182 3181 3179 3178 3176 3175 3174 3172 3171 3170 3169 3168
3157 3160 3161 3161 3162 3167 3167 3165 3163 3164 3164 3164 3165 3165 3167 3168 3172 3174 3176 3178 3180 3183 3185 3186 3187 3187 3188 3186 3186 3185 3185 3185 3185 3185 3184 3184 3182 3181 3180 3178 3177 3176 3174 3172 3170 3168 3167 3166 3166
3157 3158 3157 3158 3164 3166 3166 3164 3165 3163 3163 3163 3164 3166 3166 3168 3171 3174 3176 3178 3180 3183 3185 3186 3186 3186 3186 3185 3185 3185 3184 3184 3184 3186 3184 3182 3182 3180 3179 3177 3176 3174 3172 3170 3168 3166 3165 3164 3163
3155 3154 3155 3158 3165 3168 3163 3165 3167 3165 3164 3164 3165 3166 3167 3168 3171 3174 3176 3177 3180 3183 3184 3184 3183 3183 3183 3184 3183 3184 3184 3184 3184 3185 3183 3181 3181 3180 3179 3176 3175 3173 3170 3168 3166 3164 3162 3160 3158
3155 3154 3152 3155 3161 3162 3163 3163 3165 3166 3166 3166 3166 3168 3168 3169 3173 3174 3176 3178 3180 3181 3183 3183 3182 3182 3182 3182 3183 3183 3183 3185 3184 3184 3183 3182 3179 3177 3176 3174 3173 3171 3168 3166 3163 3161 3159 3157 3156
3153 3155 3153 3156 3160 3161 3163 3163 3163 3163 3165 3166 3167 3167 3167 3167 3170 3173 3175 3177 3178 3179 3180 3180 3180 3180 3181 3184 3183 3184 3185 3185 3183 3181 3180 3179 3178 3176 3174 3172 3170 3167 3165 3163 3161 3158 3156 3154 3152
3155 3158 3157 3157 3160 3160 3161 3162 3162 3163 3165 3166 3168 3167 3168 3168 3169 3170 3172 3174 3175 3176 3176 3178 3178 3179 3179 3181 3181 3182 3184 3184 3182 3180 3177 3175 3173 3172 3170 3168 3166 3165 3162 3160 3158 3155 3153 3150 3148
3155 3158 3158 3159 3161 3162 3162 3162 3162 3164 3166 3167 3168 3169 3169 3169 3169 3171 3173 3172 3171 3174 3177 3178 3178 3177 3180 3180 3180 3180 3179 3180 3180 3176 3175 3172 3170 3168 3166 3164 3162 3160 3158 3156 3153 3150 3148 3145 3144
3155 3156 3158 3160 3161 3161 3162 3163 3164 3165 3166 3167 3168 3169 3169 3168 3170 3171 3171 3171 3172 3173 3176 3178 3178 3178 3178 3177 3176 3178 3175 3175 3174 3173 3172 3170 3167 3166 3164 3161 3158 3155 3152 3150 3147 3145 3142 3140 3137
3154 3155 3157 3159 3161 3161 3163 3165 3164 3166 3166 3166 3167 3168 3168 3168 3169 3169 3169 3170 3171 3175 3176 3177 3176 3175 3176 3175 3177 3176 3174 3171 3169 3168 3167 3166 3164 3162 3160 3158 3154 3150 3147 3145 3142 3139 3136 3133 3131
3156 3158 3158 3159 3160 3162 3163 3164 3166 3166 3167 3166 3166 3167 3168 3170 3171 3170 3169 3172 3171 3174 3175 3176 3174 3173 3174 3175 3175 3174 3173 3169 3165 3163 3162 3160 3159 3158 3156 3153 3148 3144 3141 3138 3136 3132 3129 3126 3122
3158 3158 3158 3159 3159 3162 3162 3162 3164 3167 3167 3168 3167 3167 3167 3168 3168 3167 3168 3168 3170 3171 3171 3171 3170 3170 3172 3172 3171 3170 3167 3164 3161 3158 3155 3152 3151 3150 3148 3146 3142 3137 3134 3131 3127 3125 3119 3115 3112
3157 3156 3155 3159 3161 3162 3163 3163 3164 3166 3167 3167 3166 3166 3166 3165 3165 3164 3166 3167 3168 3169 3170 3169 3168 3168 3169 3166 3165 3164 3162 3159 3156 3152 3149 3145 3142 3139 3136 3134 3132 3129 3126 3123 3119 3113 3109 3104 3099
3155 3150 3151 3158 3161 3161 3161 3162 3164 3163 3164 3165 3164 3163 3163 3163 3163 3163 3165 3166 3168 3169 3169 3167 3166 3164 3164 3163 3160 3159 3156 3152 3150 3147 3143 3140 3136 3133 3130 3128 3125 3121 3117 3112 3107 3103 3099 3096 3090
3154 3153 3156 3159 3159 3160 3160 3161 3161 3162 3162 3162 3162 3161 3162 3161 3161 3163 3164 3166 3169 3167 3168 3166 3163 3161 3159 3158 3157 3155 3152 3149 3146 3142 3138 3136 3133 3129 3125 3120 3115 3110 3105 3100 3096 3091 3088 3084 3079
3154 3154 3156 3158 3158 3159 3159 3160 3160 3160 3159 3159 3159 3160 3161 3161 3162 3164 3165 3165 3165 3164 3164 3162 3160 3157 3156 3155 3153 3150 3148 3145 3142 3137 3133 3129 3125 3120 3116 3110 3104 3098 3093 3089 3084 3080 3076 3072 3068
3152 3153 3155 3155 3156 3156 3157 3160 3159 3156 3155 3157 3158 3159 3161 3161 3162 3162 3163 3162 3161 3160 3160 3160 3159 3157 3155 3152 3149 3146 3142 3140 3136 3132 3127 3121 3116 3111 3107 3101 3095 3089 3083 3078 3073 3069 3065 3060 3054
3152 3152 3152 3152 3152 3152 3155 3156 3157 3155 3153 3153 3154 3156 3158 3161 3162 3161 3160 3160 3160 3160 3158 3155 3154 3151 3148 3145 3140 3136 3132 3127 3124 3120 3116 3111 3105 3100 3096 3091 3085 3079 3075 3070 3064 3058 3053 3048 3044
3149 3149 3149 3150 3151 3153 3153 3153 3153 3152 3151 3152 3153 3154 3157 3159 3158 3158 3158 3158 3158 3156 3153 3149 3145 3142 3140 3138 3134 3130 3126 3120 3115 3110 3105 3100 3095 3092 3086 3080 3074 3068 3063 3058 3053 3048 3043 3038 3032
3148 3148 3149 3152 3154 3154 3152 3152 3152 3153 3153 3152 3152 3152 3154 3155 3157 3157 3156 3153 3151 3149 3146 3144 3140 3136 3134 3131 3127 3122 3116 3110 3104 3099 3094 3090 3085 3080 3074 3068 3063 3057 3052 3046 3041 3035 3029 3024 3020
3148 3149 3150 3154 3157 3153 3151 3152 3152 3152 3155 3155 3155 3152 3152 3152 3150 3151 3149 3147 3144 3142 3141 3138 3136 3133 3129 3125 3120 3114 3108 3102 3097 3091 3085 3079 3073 3067 3061 3056 3051 3045 3039 3034 3029 3023 3018 3012 3009
3149 3150 3151 3151 3153 3153 3154 3155 3155 3154 3153 3153 3151 3151 3148 3146 3150 3149 3145 3143 3141 3138 3136 3133 3129 3125 3120 3116 3111 3107 3101 3094 3089 3084 3078 3072 3065 3057 3051 3045 3041 3035 3028 3022 3018 3014 3008 3004 3001
3149 3151 3152 3152 3155 3154 3153 3153 3152 3152 3151 3152 3150 3148 3147 3148 3146 3146 3144 3141 3138 3134 3131 3127 3123 3120 3115 3110 3104 3099 3091 3084 3079 3075 3069 3063 3056 3049 3042 3036 3030 3024 3019 3013 3008 3004 2999 2995 2991
3151 3151 3151 3152 3153 3153 3156 3153 3151 3150 3151 3149 3148 3147 3146 3145 3143 3140 3138 3135 3133 3130 3127 3122 3117 3112 3107 3102 3095 3088 3082 3076 3071 3065 3061 3055 3047 3040 3033 3026 3020 3015 3011 3006 2999 2995 2991 2986 2982
3149 3150 3151 3150 3152 3151 3151 3150 3149 3149 3147 3147 3146 3145 3143 3142 3140 3136 3135 3133 3130 3126 3121 3116 3110 3103 3098 3092 3085 3080 3074 3068 3061 3055 3050 3043 3035 3029 3024 3018 3011 3006 3002 2997 2991 2986 2981 2977 2973